"Pseudo-MPEC" for CAXNWJ2

Created 2024 Oct 2 8:22:05 UT using Find_Orb

Click here for an explanation of pseudo-MPECs

 
 Astrometry: 
     CAXNWJ2*1C2024 09 30.33797502 48 40.576+33 48 32.65   ~9U8q 20.87GVNEOCPG96
     CAXNWJ2 1C2024 09 30.34332202 48 40.198+33 49 08.98   ~9U8q 20.94GVNEOCPG96
     CAXNWJ2 1C2024 09 30.34866402 48 39.784+33 49 45.05   ~9U8q 20.65GVNEOCPG96
     CAXNWJ2 1C2024 09 30.35402902 48 39.416+33 50 21.91   ~9U8q 20.85GVNEOCPG96
     CAXNWJ2 KB2024 09 30.37763 02 48 37.037+33 52 58.12   ~9UA7 20.7 GVNEOCP734
     CAXNWJ2 KB2024 09 30.39028 02 48 36.158+33 54 23.47   ~9UA7 20.9 GVNEOCP734
     CAXNWJ2 KB2024 09 30.40265 02 48 35.254+33 55 47.35   ~9UA7 20.6 GVNEOCP734
     CAXNWJ2 KC2024 09 30.45834402 48 31.670+34 02 07.90   ~9UBq 21.01GVNEOCPI52
     CAXNWJ2 KC2024 09 30.46121302 48 31.500+34 02 27.10   ~9UBq 21.20GVNEOCPI52
     CAXNWJ2 KC2024 09 30.46696202 48 31.060+34 03 05.80   ~9UBq 20.89GVNEOCPI52
     CAXNWJ2 !C2024 10 01.00639902 48 01.865+35 03 23.37   ~A1C7 20.7 GVNEOCPJ04
     CAXNWJ2 !C2024 10 01.01348802 48 01.350+35 04 11.19   ~A1C7 21.1 GVNEOCPJ04
     CAXNWJ2 KC2024 10 01.25073802 47 45.92 +35 30 20.4    ~A16q 21.3 GVNEOCPH21
     CAXNWJ2 KC2024 10 01.25213702 47 45.81 +35 30 29.8    ~A16q 21.3 GVNEOCPH21
     CAXNWJ2 KC2024 10 01.25773302 47 45.37 +35 31 07.0    ~A16q 21.4 GVNEOCPH21

Station data:
(734) Farpoint Observatory, Eskridge  (N38.890239 W96.002420)  US/Kansas.
   Observer G. Hug. 0.69-m reflector + CCD.
(G96) Mt. Lemmon Survey  (N32.442729 W110.788720)  US/Arizona.  Observer E.
   J. Christensen. 1.5-m reflector + 10K CCD.
(H21) Astronomical Research Observatory, Westfield  (N39.483054 W87.968270)
   US/Illinois.  Observer R. Holmes. Measurers S. Foglia, L. Buzzi, T.
   Linder, R. Holmes. 0.76-m f/3.0 astrograph + CCD0.81-m f/4.0 astrograph +
   CCD0.61-m f/4.5 astrograph + CCD0.40-m f/5.32 astrograph + CCD.
(I52) Steward Observatory, Mt. Lemmon Station  (N32.442570 W110.788920)
   US/Arizona.  Observers T. A. Pruyne, B. M. Africano, E. J. Christensen, G.
   A. Farneth, D. C. Fuls, A. R. Gibbs, A. D. Grauer, H. Gröller, J. A.
   Johnson, R. A. Kowalski, S. M. Larson, G. J. Leonard, D. Rankin, R. L.
   Seaman, F. C. Shelly, K. W. Wierzchoś. 1.0-m prime focus + CCD.
(J04) ESA Optical Ground Station, Tenerife  (N28.300921 W16.511830)  Canary
   Islands (Spain).  Observer R. Kresken. Measurers M. Micheli, D. Koschny,
   E. Schwab, M. Busch, A. Knöfel. 1.0-m f/4.4 reflector + CCD.

Orbital elements:  CAXNWJ2
   Perihelion 2024 Sep 18.11295 +/- 0.267 TT =  2:42:38 (JD 2460571.61295)
Epoch 2024 Oct  1.0 TT = JDT 2460584.5   Earth MOID: 0.1642   Ju: 0.6409
M   2.46051780 +/- 0.11             (J2000 ecliptic)             AutoNEOCP
n   0.19092948 +/- 0.0106           Peri.  356.23749 +/- 0.30
a   2.98690018 +/- 0.11             Node     6.97827 +/- 0.07
e   0.6098157 +/- 0.014             Incl.   23.04127 +/- 0.22
P   5.16216                H 22.56  G  0.15   U  9.7
q 1.16544148 +/- 0.002    Q 4.80835887 +/- 0.219
From 15 observations 2024 Sept. 30-Oct. 1 (22.1 hr); mean residual 0".20
Residuals in arcseconds: 
240930 G96  .01-  .26+    240930 734  .50+  .26-    241001 J04  .20-  .06-    
240930 G96  .11+  .10+    240930 734  .38+  .14+    241001 J04  .12-  .03-    
240930 G96  .20-  .27-    240930 I52  .54-  .07+    241001 H21  .20+  .01-    
240930 G96  .09+  .02+    240930 I52  .04-  .01-    241001 H21  .15+  .07+    
240930 734  .03+  .09-    240930 I52  .29-  .08+    241001 H21  .01-  .01+    

Ephemerides (geocentric):
Date (UTC) HH   RA             Dec           delta  r     elong  mag " sig PA
---- --------  ------------   ------------  ------ ------ -----  --- --------
2024 10 02 08  02 46 33.012   +37 27 38.04  .23611 1.1788 134.6 21.3 .792 116
2024 10 02 09  02 46 30.107   +37 32 03.85  .23623 1.1788 134.6 21.3 .820 116
2024 10 02 10  02 46 27.192   +37 36 29.29  .23636 1.1789 134.6 21.3 .850 117
2024 10 02 11  02 46 24.267   +37 40 54.35  .23649 1.1790 134.6 21.3 .879 117
2024 10 02 12  02 46 21.330   +37 45 19.05  .23661 1.1791 134.6 21.3 .909 117
2024 10 02 13  02 46 18.383   +37 49 43.37  .23674 1.1791 134.6 21.3 .940 118
2024 10 02 14  02 46 15.425   +37 54 07.33  .23687 1.1792 134.6 21.3 .971 118
2024 10 02 15  02 46 12.456   +37 58 30.91  .23700 1.1793 134.6 21.3 1.00 118
2024 10 02 16  02 46 09.476   +38 02 54.12  .23713 1.1794 134.6 21.3 1.04 118
2024 10 02 17  02 46 06.486   +38 07 16.96  .23726 1.1795 134.6 21.3 1.07 119
2024 10 02 18  02 46 03.485   +38 11 39.42  .23739 1.1795 134.6 21.3 1.10 119
2024 10 02 19  02 46 00.474   +38 16 01.51  .23752 1.1796 134.6 21.3 1.13 119
2024 10 02 20  02 45 57.451   +38 20 23.22  .23765 1.1797 134.6 21.3 1.17 119
2024 10 02 21  02 45 54.418   +38 24 44.56  .23778 1.1798 134.6 21.3 1.20 119
2024 10 02 22  02 45 51.374   +38 29 05.52  .23791 1.1799 134.6 21.3 1.24 120
2024 10 02 23  02 45 48.319   +38 33 26.10  .23804 1.1799 134.6 21.3 1.27 120
2024 10 03 00  02 45 45.254   +38 37 46.30  .23818 1.1800 134.6 21.3 1.31 120
2024 10 03 01  02 45 42.178   +38 42 06.13  .23831 1.1801 134.5 21.3 1.35 120
2024 10 03 02  02 45 39.091   +38 46 25.58  .23844 1.1802 134.5 21.3 1.38 120
2024 10 03 03  02 45 35.993   +38 50 44.64  .23858 1.1803 134.5 21.3 1.42 121
2024 10 03 04  02 45 32.885   +38 55 03.33  .23871 1.1803 134.5 21.3 1.46 121
2024 10 03 05  02 45 29.766   +38 59 21.64  .23885 1.1804 134.5 21.3 1.49 121
2024 10 03 06  02 45 26.636   +39 03 39.57  .23898 1.1805 134.5 21.3 1.53 121
2024 10 03 07  02 45 23.495   +39 07 57.11  .23912 1.1806 134.5 21.3 1.57 121
2024 10 03 08  02 45 20.344   +39 12 14.27  .23925 1.1807 134.5 21.3 1.61 121
2024 10 03 09  02 45 17.182   +39 16 31.05  .23939 1.1808 134.5 21.3 1.65 122
2024 10 03 10  02 45 14.009   +39 20 47.45  .23953 1.1808 134.5 21.3 1.69 122
2024 10 03 11  02 45 10.825   +39 25 03.46  .23967 1.1809 134.5 21.3 1.73 122
2024 10 03 12  02 45 07.631   +39 29 19.09  .23980 1.1810 134.5 21.3 1.77 122
2024 10 03 13  02 45 04.425   +39 33 34.33  .23994 1.1811 134.5 21.3 1.82 122
2024 10 03 14  02 45 01.210   +39 37 49.18  .24008 1.1812 134.5 21.3 1.86 122
2024 10 03 15  02 44 57.983   +39 42 03.66  .24022 1.1813 134.5 21.3 1.90 122
2024 10 03 16  02 44 54.745   +39 46 17.74  .24036 1.1813 134.5 21.3 1.94 122
2024 10 03 17  02 44 51.497   +39 50 31.44  .24050 1.1814 134.5 21.3 1.99 123
2024 10 03 18  02 44 48.238   +39 54 44.75  .24064 1.1815 134.4 21.3 2.03 123
2024 10 03 19  02 44 44.969   +39 58 57.67  .24078 1.1816 134.4 21.3 2.07 123
2024 10 03 20  02 44 41.688   +40 03 10.20  .24092 1.1817 134.4 21.3 2.12 123
2024 10 03 21  02 44 38.397   +40 07 22.34  .24107 1.1818 134.4 21.3 2.16 123
2024 10 03 22  02 44 35.095   +40 11 34.10  .24121 1.1819 134.4 21.3 2.21 123
2024 10 03 23  02 44 31.782   +40 15 45.46  .24135 1.1819 134.4 21.3 2.25 123
2024 10 04 00  02 44 28.459   +40 19 56.44  .24150 1.1820 134.4 21.3 2.30 123
2024 10 04 01  02 44 25.125   +40 24 07.02  .24164 1.1821 134.4 21.3 2.35 123
2024 10 04 02  02 44 21.780   +40 28 17.21  .24178 1.1822 134.4 21.3 2.39 123
2024 10 04 03  02 44 18.424   +40 32 27.01  .24193 1.1823 134.4 21.3 2.44 124
2024 10 04 04  02 44 15.057   +40 36 36.42  .24207 1.1824 134.4 21.4 2.49 124
2024 10 04 05  02 44 11.680   +40 40 45.44  .24222 1.1825 134.4 21.4 2.54 124
2024 10 04 06  02 44 08.292   +40 44 54.06  .24237 1.1825 134.4 21.4 2.59 124
2024 10 04 07  02 44 04.893   +40 49 02.29  .24251 1.1826 134.4 21.4 2.64 124